Location: Unspecified
(0.0000°N, 0.0000°E)
Time: 20:58:36
(UTC+00:00)

Envisat - Pass Details

Date: 24 June 2017
Orbit: 764 x 766 km, 98.2° (Epoch: 26 June)

Event Time Altitude Azimuth Distance (km) Brightness Sun altitude
Exits shadow 20:01:06 22° 29° (NNE) 1,607 4.6 -27.0°
Drops below altitude 10° 20:03:11 10° 13° (NNE) 2,292 5.6 -27.5°
Sets 20:05:39 0° 4° (N) 3,214 6.5 -28.0°
